Regional Weather Roundup
Issued by NWS

Home | Current Version | Previous Version | Text Only | Print | Product List | Glossary On
Versions: 1 2 3 4 5 6 7 8 9 10 11 12 13 14 15 16 17 18 19 20 21 22 23 24 25 26 27
000
ASUS42 KFFC 310703
RWRGA
WEATHER ROUNDUP FOR GEORGIA
NATIONAL WEATHER SERVICE PEACHTREE CITY GA
300 AM EDT TUE MAY 31 2016

NOTE: "FAIR" INDICATES FEW OR NO CLOUDS BELOW 12,000 FEET WITH NO
SIGNIFICANT WEATHER AND/OR OBSTRUCTIONS TO VISIBILITY.

* = USE WITH CAUTION. THE STATIONS MARKED WITH AN ASTERISK MAY NOT
REPORT WEATHER SUCH AS PRECIPITATION, FOG, OR THUNDER AND ARE NOT
QUALITY CONTROLLED BY NWS.

THE REMARK "TC" DENOTES TEMPERATURE READING IN DEGREES CELSIUS.

GAZ001>058-310800-
NORTH GEORGIA

CITY           SKY/WX    TMP DP  RH WIND       PRES   REMARKS
ATLANTA        PTCLDY    73  59  61 NW8       29.93F
ATHENS         CLEAR     70  66  87 NE5       29.94S
CHAMBLEE       CLEAR     70  60  70 N3        29.93F
ROME           CLEAR     65  63  93 CALM      29.93F
WEST ATLANTA   CLEAR     70  61  73 CALM      29.93F
GAINESVILLE    PTCLDY    70  63  78 NE6       29.97F
CARTERSVILLE   CLEAR     63  62  97 CALM      29.94F FOG


CITY           SKY/WX    TMP DP  RH WIND       PRES   REMARKS
DALTON*        CLEAR     63  63 100 CALM      29.94F
CANTON*        CLEAR     63  59  88 CALM      29.97S
BLAIRSVILLE*     N/A    N/A N/A N/A MISG      30.00F
$$

GAZ059>098-102>109-310800-
CENTRAL GEORGIA

CITY           SKY/WX    TMP DP  RH WIND       PRES   REMARKS
AUGUSTA-BUSH   CLEAR     68  66  93 CALM      29.90F
AUGUSTA-DANIEL CLEAR     74  68  81 CALM      29.92F
COLUMBUS       CLEAR     70  65  84 W3        29.91F
MACON          CLEAR     68  66  93 SW3       29.88F


CITY           SKY/WX    TMP DP  RH WIND       PRES   REMARKS
LAGRANGE*      CLEAR     65  65 100 CALM      29.93S
SYLVANIA*      CLEAR     71  69  93 CALM      29.90F
MILLEDGEVILLE* CLEAR     70  68  94 CALM      29.90S
$$

GAZ099>101-110>166-310800-
SOUTH GEORGIA

CITY           SKY/WX    TMP DP  RH WIND       PRES   REMARKS
SAVANNAH       CLEAR     71  68  90 CALM      29.89F
VALDOSTA       CLEAR     68  67  96 S3        29.91F
ALMA           PTCLDY    71  66  84 SW3       29.89F
ST SIMONS      CLEAR     74  67  78 SW9       29.88F
ALBANY         CLEAR     72  64  76 CALM      29.92F
BRUNSWICK      CLEAR     79  70  73 W7        29.90F


CITY           SKY/WX    TMP DP  RH WIND       PRES   REMARKS
BAINBRIDGE*    CLEAR     72  68  88 CALM      29.92F
MOULTRIE*      CLEAR     73  66  78 CALM      29.92F
VIDALIA*       CLOUDY    72  66  83 CALM      29.89F
WAYCROSS*      PTCLDY    70  67  93 SW3       29.89F
DOUGLAS*       CLEAR     72  68  88 SW5       29.91F
$$




USA.gov is the U.S. government's official web portal to all federal, state and local government web resources and services.